Regional Weather Roundup
Issued by NWS

Home | Current Version | Previous Version | Text Only | Print | Product List | Glossary On
Versions: 1 2 3 4 5 6 7 8 9 10 11 12 13 14 15 16 17 18 19 20 21 22 23 24 25 26 27 28 29 30 31 32 33 34 35 36 37 38 39 40 41 42 43 44 45 46 47 48 49 50
178
ASUS43 KDTX 260010
RWRMI
MICHIGAN HOURLY REGIONAL WEATHER ROUNDUP
NATIONAL WEATHER SERVICE DETROIT/PONTIAC MI
700 PM EST SAT FEB 25 2017

NOTE: "FAIR" INDICATES FEW OR NO CLOUDS BELOW 12,000 FEET WITH NO
SIGNIFICANT WEATHER AND/OR OBSTRUCTION TO VISIBILITY.

MIZ047>049-052>055-059>063-066>070-074>076-081>083-260100-
SOUTHEAST LOWER MICHIGAN

CITY           SKY/WX    TMP DP  RH WIND       PRES   REMARKS
ADRIAN         FLURRIES  25  18  74 W14G26    29.90R WCI  13
6HR MIN TEMP:  25; 6HR MAX TEMP:  31; 6HR PCP: TRACE;

ALMA           CLOUDY    25  18  76 W10G18    29.85R WCI  14
ANN ARBOR      LGT SNOW  25  18  74 W14       29.86R WCI  13
BAD AXE        FLURRIES  26  17  67 W22       29.76R WCI  12
6HR MIN TEMP:  26; 6HR MAX TEMP:  32;

CARO           CLOUDY    26  19  76 W12G23    29.79R WCI  15
DETROIT CITY   CLOUDY    27  15  61 W15G26    29.84R WCI  15
6HR MIN TEMP:  27; 6HR MAX TEMP:  37; 6HR PCP: TRACE;

DETROIT        FLURRIES  28  16  60 W21G29    29.86R WCI  15
6HR MIN TEMP:  28; 6HR MAX TEMP:  36; 6HR PCP: TRACE;

FLINT          CLOUDY    25  14  63 W25G31    29.83R WCI   9
6HR MIN TEMP:  24; 6HR MAX TEMP:  30; 6HR PCP: TRACE;

GROSSE ILE     CLOUDY    28  19  67 W18G24    29.86R WCI  15
6HR MIN TEMP:  28; 6HR MAX TEMP:  35;

HILLSDALE      LGT SNOW  23  19  86 W10G17    29.87R WCI  12
HOWELL         FLURRIES  24  17  73 W17       29.85R WCI  10
6HR MIN TEMP:  24; 6HR MAX TEMP:  31;


CITY           SKY/WX    TMP DP  RH WIND       PRES   REMARKS
JACKSON        CLOUDY    24  15  68 W12G29    29.87R WCI  13
6HR MIN TEMP:  23; 6HR MAX TEMP:  28; 6HR PCP: TRACE;

LAMBERTVILLE   CLOUDY    29  18  64 W17G26    29.90R WCI  17
6HR MIN TEMP:  28; 6HR MAX TEMP:  35;

LANSING        LGT SNOW  23  14  68 W20G25    29.88R WCI   8
6HR MIN TEMP:  23; 6HR MAX TEMP:  29; 6HR PCP: TRACE;

LAPEER         CLOUDY    26  16  65 W18G24    29.81R WCI  12
6HR MIN TEMP:  25; 6HR MAX TEMP:  32;

MASON          LGT SNOW  24  17  76 W23G29    29.88R WCI   8
MONROE         CLOUDY    28  21  76 W15G25    29.88R WCI  16
6HR MIN TEMP:  28; 6HR MAX TEMP:  34;

MT. CLEMENS    FLURRIES  28  15  60 W20G29    29.80R WCI  14
6HR MIN TEMP:  27; 6HR MAX TEMP:  38; 6HR PCP: TRACE;

PONTIAC        FLURRIES  25  14  63 W23G31    29.81R WCI  10
6HR MIN TEMP:  25; 6HR MAX TEMP:  32; 6HR PCP: TRACE;

PORT HOPE        N/A     28  15  58 W15G25    29.72R WCI  16
6HR MIN TEMP:  28; 6HR MAX TEMP:  33;

PORT HURON     CLOUDY    27  16  63 W15G30    29.80R WCI  15
TRI CITIES     FLURRIES  25  18  74 W21       29.82R WCI  11
6HR MIN TEMP:  25; 6HR MAX TEMP:  31; 6HR PCP: TRACE;

MIDLAND        FLURRIES  26  17  66 W16G23    29.81R WCI  14
6HR MIN TEMP:  26; 6HR MAX TEMP:  31;

TROY           CLOUDY    28  13  52 W22G32    29.85R WCI  14
SAGINAW HB     CLOUDY    28  16  59 W16       29.82R WCI  17
$$
MIZ043>046-050>051-056>058-064>065-071>073-077>080-260100-
SOUTHWEST LOWER MICHIGAN

CITY           SKY/WX    TMP DP  RH WIND       PRES   REMARKS
BATTLE CREEK   LGT SNOW  22  17  81 W16       29.91R WCI   8
6HR MIN TEMP:  22; 6HR MAX TEMP:  27; 6HR PCP: TRACE;

BENTON HARBOR  CLOUDY    25  15  66 W14G24    29.95R WCI  13
6HR MIN TEMP:  24; 6HR MAX TEMP:  26; 6HR PCP: TRACE;

BIG RAPIDS     LGT SNOW  23  19  85 W14       29.82R WCI  10
6HR MIN TEMP:  23; 6HR MAX TEMP:  25;

COLDWATER      FLURRIES  24  19  81 NW15      29.91R WCI  12
6HR MIN TEMP:  24; 6HR MAX TEMP:  27;

FREMONT        LGT SNOW  22  19  86 W10       29.88R WCI  11
HOLLAND        LGT SNOW  24  15  68 W14       29.93R WCI  12
6HR MIN TEMP:  23; 6HR MAX TEMP:  25; 6HR PCP: TRACE;

GRAND RAPIDS   FLURRIES  23  16  74 W14       29.89R WCI  11
6HR MIN TEMP:  22; 6HR MAX TEMP:  27; 6HR PCP:  0.01;

IONIA          FLURRIES  22  18  83 W14       29.87R WCI   9
6HR MIN TEMP:  22; 6HR MAX TEMP:  28;

KALAMAZOO      LGT SNOW  22  15  75 W9        29.92R WCI  12
6HR MIN TEMP:  22; 6HR MAX TEMP:  26; 6HR PCP: TRACE;

LUDINGTON      CLOUDY    24  16  69 W9G17     29.87R WCI  15
6HR MIN TEMP:  23; 6HR MAX TEMP:  25;

MARSHALL       FLURRIES  23  15  73 W14G26    29.90R WCI  10
6HR MIN TEMP:  23; 6HR MAX TEMP:  28;

MOUNT PLEASANT FLURRIES  25  18  75 W15G21    29.82R WCI  12
6HR MIN TEMP:  25; 6HR MAX TEMP:  29;

MUSKEGON       CLOUDY    25  15  66 W13       29.91R WCI  14
6HR MIN TEMP:  24; 6HR MAX TEMP:  25; 6HR PCP: TRACE;

SOUTH HAVEN    FLURRIES  24  15  71 NW12G22   29.94R WCI  12
$$
MIZ016>042-260100-
NORTHERN LOWER MICHIGAN

CITY           SKY/WX    TMP DP  RH WIND       PRES   REMARKS
ALPENA         CLOUDY    24  16  71 W14G25    29.71R WCI  12
6HR MIN TEMP:  24; 6HR MAX TEMP:  29; 6HR PCP:  0.01;

BEAVER ISLAND  MOCLDY    23  13  68 W9G18     29.76R WCI  13
6HR MIN TEMP:  22; 6HR MAX TEMP:  25;

BELLAIRE       CLOUDY    26  18  69 W5        29.77R WCI  21
6HR MIN TEMP:  24; 6HR MAX TEMP:  27;

CADILLAC       LGT SNOW  22  18  83 W10       29.75R WCI  11
CHARLEVOIX     CLOUDY    25  16  67 NW16G26   29.78R WCI  13
6HR MIN TEMP:  24; 6HR MAX TEMP:  25;

FRANKFORT      CLOUDY    27  19  71 W16       29.81R WCI  14
GAYLORD        FLURRIES  22  16  78 NW8       29.70R WCI  12
6HR MIN TEMP:  22; 6HR MAX TEMP:  24; 6HR PCP: TRACE;

GRAYLING       CLOUDY    24  19  83 W7        29.73R WCI  15
6HR MIN TEMP:  24; 6HR MAX TEMP:  26;

HARBOR SPRINGS PTCLDY    21  10  62 NW12G22   29.74R WCI  10
HOUGHTON LAKE  FLURRIES  23  17  78 W13G23    29.75R WCI  11
6HR MIN TEMP:  22; 6HR MAX TEMP:  25; 6HR PCP: TRACE;

MANISTEE       FLURRIES  25  17  72 W17       29.84R WCI  12
OSCODA         CLOUDY    28  15  60 W21G26    29.73R WCI  14
6HR MIN TEMP:  27; 6HR MAX TEMP:  36;

PELLSTON       FLURRIES  22  10  60 NW17G29   29.74R WCI   8
6HR MIN TEMP:  22; 6HR MAX TEMP:  25; 6HR PCP: TRACE;

ROGERS CITY      N/A     23  18  80 W7        29.71R WCI  15
TRAVERSE CITY  CLOUDY    27  15  61 W15       29.78R WCI  15
6HR MIN TEMP:  24; 6HR MAX TEMP:  27; 6HR PCP: TRACE;

$$
MIZ007>008-015-260100-
EASTERN UPPER MICHIGAN

CITY           SKY/WX    TMP DP  RH WIND       PRES   REMARKS
KINROSS        FLURRIES  20  15  81 W18G30    29.67R WCI   5
6HR MIN TEMP:  20; 6HR MAX TEMP:  22; 6HR PCP: TRACE;

MACKINAC ISLAN MOCLDY    21  13  71 W21G30    29.71R WCI   5
6HR MIN TEMP:  21; 6HR MAX TEMP:  25;

NEWBERRY       CLOUDY    19  14  80 W9        29.69R WCI   9
6HR MIN TEMP:  19; 6HR MAX TEMP:  22;

S. S. MARIE    LGT SNOW  23  17  78 W20G31    29.64R WCI   8
6HR MIN TEMP:  21; 6HR MAX TEMP:  23; 6HR PCP:  0.07;

MUNISING         N/A     23  12  62 W9G21     29.74R WCI  13
6HR MIN TEMP:  21; 6HR MAX TEMP:  24;

$$
MIZ004>006-011>014-085-260100-
CENTRAL UPPER MICHIGAN

CITY           SKY/WX    TMP DP  RH WIND       PRES   REMARKS
MANISTIQUE     CLOUDY    20  12  71 W6        29.75R WCI  13
6HR MIN TEMP:  20; 6HR MAX TEMP:  23;

MENOMINEE      CLEAR     20  11  68 W7        29.85R WCI  11
6HR MIN TEMP:  20; 6HR MAX TEMP:  27; 6HR PCP: TRACE;

SAWYER-GWINN   FLURRIES  18  10  73 W9        29.73R WCI   6
$$
MIZ001>003-009>011-084-260100-
WESTERN UPPER MICHIGAN

CITY           SKY/WX    TMP DP  RH WIND       PRES   REMARKS
IRON MOUNTAIN  CLEAR     19   7  59 W5        29.77R WCI  12
6HR MIN TEMP:  19; 6HR MAX TEMP:  22; 6HR PCP: TRACE;

HOUGHTON       PTCLDY    22  10  60 W20       29.70R WCI   7
6HR MIN TEMP:  18; 6HR MAX TEMP:  22; 6HR PCP: TRACE;

COPPER HARBOR    N/A     25  11  55 NW10G28   29.70R WCI  15
6HR MIN TEMP:  20; 6HR MAX TEMP:  25;

IRONWOOD       CLEAR     19   9  65 W7        29.77S WCI  10
6HR MIN TEMP:  15; 6HR MAX TEMP:  24; 6HR PCP: TRACE;

$$

ABBREVIATIONS USED IN REMARKS
   TC - TEMPERATURE IN CELSIUS
  WCI - WIND CHILL INDEX
   HX - HEAT INDEX
  VSB - VISIBILITY





USA.gov is the U.S. government's official web portal to all federal, state and local government web resources and services.